Location: Moscow
(55.7500°N, 37.5830°E)
Time: 17:14:09
(UTC+03:00)

Transit 2A - Pass Details

Date: 06 December 2021
Orbit: 591 x 967 km, 66.7° (Epoch: 21 January)

Event Time Altitude Azimuth Distance (km) Brightness Sun altitude
Rises 00:33:00 0° 208° (SSW) 3,362 - -56.6°
Reaches altitude 10° 00:35:22 10° 205° (SSW) 2,484 - -56.6°
Maximum altitude 00:41:06 64° 125° (SE) 1,010 - -56.5°
Drops below altitude 10° 00:47:20 10° 46° (NE) 2,686 - -56.4°
Exits shadow 00:49:52 - 44° (NE) 3,617 9.9 -56.3°
Sets 00:49:58 0° 44° (NE) 3,655 9.9 -56.3°
